CZ-4B R/B (43656 NORAD) Tracking and Keplerian Element Data

This shows tracking and keplerian element data for the satellite.

Feedback or suggestion? Click here.




ElementValue
Catalog43656
NameCZ-4B R/B
Epoch Orbit414
Epoch Day326.96233072
Epoch Year2018
RAAN334.8696
Inclination99.4526
Eccentricity0.0208372
Argument of Perigee284.6963
Mean Anonmoly73.1206
Mean Motion14.30397503
Decay Rate-3E-08
L11 43656U 18081B 18326.96233072 -.00000003 00000-0 17764-4 0 9997
L22 43656 99.4526 334.8696 0208372 284.6963 73.1206 14.30397503 4143



Live tracking and technical data element details for CZ-4B R/B (NORAD 43656). CZ-4B R/B can be tracked NOW for your location showing map with azimuth and elevation plus other details from your city location.







IsCatalogInMostPopularTable: catalog: 43656, numindb: 602
Update: records affected: 1



GetName: 43656 CZ-4B R/B

Hit Count: updated at: Thu, 22 May 2025 04:20:23 GMT